Date,TemperatureHighF,TemperatureAvgF,TemperatureLowF,DewpointHighF,DewpointAvgF,DewpointLowF,HumidityHigh,HumidityAvg,HumidityLow,PressureMaxIn,PressureMinIn,WindSpeedMaxMPH,WindSpeedAvgMPH,GustSpeedMaxMPH,PrecipitationSumIn
2013-1-1,36.3,33.9,30.9,31.9,29.7,26.2,88,84,81,29.30,29.20,4,1,5,0.15
2013-1-2,37.9,28.4,22.1,25.9,18.9,15.3,82,67,45,34.02,29.28,4,0,6,0.00
2013-1-3,41.5,28.6,19.9,24.4,19.0,15.1,82,68,40,30.69,29.91,8,1,16,0.01
2013-1-4,40.1,32.2,27.3,26.7,21.3,17.0,72,64,53,30.09,30.01,11,4,19,0.00
2013-1-5,45.9,33.8,21.4,29.4,23.5,15.6,81,66,49,30.12,29.89,8,1,11,0.00
2013-1-6,38.7,37.6,35.8,28.1,26.8,24.4,67,65,62,29.89,29.82,9,2,12,0.00
2013-1-11,61.0,56.7,54.9,53.4,51.8,51.2,90,84,71,29.98,29.92,2,1,4,0.30
2013-1-12,65.3,62.2,54.7,62.0,59.4,52.1,93,90,85,30.05,29.86,7,1,11,0.19
2013-1-13,65.5,60.9,57.2,59.1,56.1,54.2,91,84,72,29.99,29.80,12,3,20,0.61
2013-1-15,61.0,33.0,32.0,51.5,28.4,27.0,84,83,71,29.92,29.70,0,0,2,0.67
2013-1-16,34.3,33.0,32.0,30.1,29.3,28.0,88,86,83,29.89,29.73,0,0,0,0.01
2013-1-17,39.7,33.7,31.3,32.9,28.6,26.7,86,82,73,30.00,29.88,6,0,8,0.04
2013-1-18,48.4,35.4,20.8,25.7,22.1,15.1,79,59,40,30.32,30.08,9,2,14,0.00
2013-1-19,58.5,42.5,32.4,29.1,24.2,21.1,68,51,26,30.09,29.77,17,5,27,0.13
2013-1-21,32.5,22.7,15.3,14.1,-1.1,-9.4,53,35,26,30.01,29.85,13,6,21,0.13
2013-1-22,23.4,15.3,10.0,-3.1,-7.7,-13.5,47,35,23,30.17,27.13,10,4,14,0.00
2013-1-23,32.4,22.1,12.9,12.6,2.2,-7.8,55,42,29,30.13,29.85,9,2,12,0.00
2013-1-24,30.4,22.2,17.1,11.7,-1.2,-8.6,58,37,21,30.32,29.87,11,4,18,0.00
2013-1-25,27.7,24.3,21.0,20.2,12.0,0.2,76,60,39,30.19,29.81,8,3,12,0.00
2013-1-26,42.6,29.1,23.0,21.4,16.2,11.3,79,60,32,30.18,29.95,8,2,12,0.00
2013-1-27,50.4,34.2,19.9,37.0,20.2,11.5,86,59,28,30.22,29.97,9,2,13,0.15
2013-1-28,56.1,49.5,41.2,49.7,44.1,36.8,90,82,62,29.97,29.85,101,4,101,0.15
2013-1-29,69.8,60.2,48.2,56.1,51.7,44.2,87,74,57,29.86,29.42,17,4,24,0.04
2013-1-30,70.0,55.0,0.0,56.2,48.5,23.3,89,78,61,29.42,28.56,18,5,31,0.54
2013-1-31,34.2,29.7,0.0,25.5,19.5,14.0,86,62,53,29.76,29.08,14,7,29,0.02
2013-2-1,24.3,6.4,0.0,25.5,13.9,-8.1,82,22,38,29.59,0.00,13,2,21,0.02
2013-2-2,0.0,0.0,0.0,25.5,25.5,25.5,0,0,100,0.00,40.00,0,0,0,0.02
2013-2-3,0.0,0.0,0.0,25.5,25.5,25.5,0,0,100,0.00,0.00,0,0,0,0.02
2013-2-4,0.0,0.0,0.0,25.5,25.5,25.5,0,0,100,0.00,0.00,0,0,0,0.02
2013-2-11,55.4,47.5,38.7,33.0,28.0,25.4,60,47,35,30.07,29.89,19,6,28,0.69
2013-2-12,52.2,39.8,30.4,29.1,24.7,21.1,73,56,33,30.15,29.87,9,2,12,0.00
2013-2-13,38.3,35.0,31.3,31.0,27.8,24.9,84,75,61,29.92,29.74,7,2,11,0.02
2013-2-14,58.1,40.8,29.3,37.7,30.8,25.0,86,70,39,29.96,29.82,16,3,24,0.01
2013-2-15,43.3,36.9,27.5,33.0,27.9,17.3,79,70,58,30.12,29.95,11,2,14,0.00
2013-2-16,34.3,26.2,19.2,19.5,12.5,4.0,77,57,30,30.11,29.98,11,3,17,0.00
2013-2-17,39.2,25.1,18.0,12.1,6.7,-1.6,71,47,21,30.24,30.09,8,2,11,0.00
2013-2-18,63.9,42.6,21.4,35.5,22.5,7.8,56,45,33,30.19,29.77,18,3,26,0.04
2013-2-19,51.6,37.5,25.5,38.4,25.2,11.6,86,62,41,30.11,29.70,24,7,40,0.38
2013-2-20,36.9,27.0,20.5,13.5,9.7,6.6,57,48,31,30.25,30.11,10,3,15,0.00
2013-2-21,41.2,28.6,17.6,24.3,15.1,6.9,76,57,43,30.31,29.99,14,4,18,0.00
2013-2-22,34.0,32.5,31.1,29.3,27.4,24.4,84,81,76,30.01,29.85,0,0,0,0.01
2013-2-23,48.2,42.2,36.0,36.9,29.5,26.7,81,61,47,29.97,29.85,9,3,12,0.00
2013-2-24,49.6,37.8,27.9,29.9,23.0,19.7,75,56,36,30.10,29.85,8,2,11,0.00
2013-2-25,55.6,37.5,25.0,24.2,20.8,15.3,68,53,26,30.12,29.83,13,4,17,0.00
2013-2-26,56.3,46.0,39.2,50.0,37.5,23.6,84,72,52,29.83,29.34,16,5,26,0.30
2013-2-27,41.9,37.8,32.9,36.2,32.4,28.0,86,81,74,29.76,29.55,18,6,25,0.08
2013-2-28,36.0,34.1,32.5,30.8,28.2,26.0,85,79,75,29.93,29.72,12,3,19,0.01
2013-3-1,38.1,34.9,32.0,33.7,30.4,26.6,85,83,78,29.98,29.89,5,1,8,0.05
2013-3-2,32.0,29.9,28.0,27.3,23.7,20.2,83,77,72,30.00,29.95,0,0,0,0.00
2013-3-3,33.4,27.2,22.3,22.8,17.6,13.9,75,67,53,29.96,29.90,5,1,8,0.00
2013-3-4,49.5,33.9,18.1,27.3,20.1,10.7,77,59,34,30.02,29.82,7,1,10,0.01
2013-3-5,45.0,39.9,30.2,40.9,31.0,24.0,88,71,54,29.83,29.40,17,4,26,0.38
2013-3-6,33.1,31.0,29.1,26.4,25.4,24.1,86,80,75,30.11,29.57,13,5,24,0.00
2013-3-7,36.9,33.5,31.3,27.5,26.1,25.2,80,74,64,30.22,30.08,5,1,7,0.00
2013-3-8,55.8,38.4,27.3,30.8,25.9,20.8,80,62,34,30.31,30.16,10,2,14,0.01
2013-3-9,72.0,47.3,28.8,38.2,29.7,22.2,77,54,20,30.22,29.90,8,2,13,0.00
2013-3-10,72.9,60.0,47.8,40.6,34.9,29.8,60,41,22,29.93,29.69,10,2,17,0.00
2013-3-11,63.7,57.1,50.0,53.1,40.5,32.6,93,57,32,29.71,29.55,8,1,17,0.39
2013-3-12,56.8,41.7,35.2,52.9,31.2,27.9,93,67,48,29.90,29.56,19,4,24,0.66
2013-3-13,38.7,32.5,27.5,30.5,23.2,15.7,87,69,45,30.19,29.88,13,5,19,0.00
2013-3-14,28.4,25.4,23.5,19.6,17.7,17.1,76,72,65,30.19,30.17,4,2,7,0.00
2013-3-16,53.8,47.7,43.7,42.7,40.1,37.6,80,75,66,30.05,29.92,10,4,14,0.05
2013-3-17,43.7,36.3,33.8,37.6,32.6,30.6,93,86,77,30.20,30.02,10,4,14,0.33
2013-3-18,57.4,45.6,34.9,53.3,43.1,33.1,99,91,76,30.02,29.72,16,5,24,0.70
2013-3-19,50.5,40.6,34.7,36.5,23.3,5.0,87,55,21,30.88,28.56,17,6,26,0.01
2013-3-20,48.4,35.8,25.2,25.3,15.5,4.2,66,44,24,30.20,29.99,16,5,27,0.02
2013-3-21,38.5,26.4,19.9,14.4,8.9,1.0,73,49,24,30.12,30.02,10,3,16,0.00
2013-3-22,55.2,33.6,18.5,24.0,15.7,9.1,78,51,22,30.17,30.03,8,1,10,0.00
2013-3-23,62.4,45.4,36.9,31.2,25.8,20.0,75,49,24,30.13,29.90,8,2,11,0.00
2013-3-24,41.7,38.7,36.1,38.9,31.5,23.3,97,77,49,29.91,29.47,14,4,22,0.66
2013-3-25,40.1,34.1,30.9,39.1,29.8,27.1,96,84,76,30.02,29.51,16,6,27,0.06
2013-3-26,41.4,35.1,32.4,33.6,30.0,25.9,91,82,68,30.32,30.03,11,3,15,0.01
2013-3-27,45.3,37.4,29.3,30.0,25.6,22.8,78,63,46,30.39,30.31,9,3,13,0.00
2013-3-28,58.5,41.4,28.8,28.2,25.2,22.0,76,54,29,30.44,30.31,8,1,11,0.00
2013-3-29,65.5,44.4,28.0,39.3,29.5,22.6,86,60,24,30.40,30.22,9,2,14,0.00
2013-3-30,66.9,48.3,30.6,45.2,35.7,28.3,96,67,31,30.34,30.01,8,1,11,0.00
2013-3-31,63.3,51.2,47.1,49.3,44.7,39.6,96,79,52,30.01,29.87,11,2,16,0.06
2013-4-1,52.7,45.3,36.9,45.5,31.8,18.4,86,61,30,30.19,29.90,9,3,14,0.00
2013-4-2,53.8,39.6,26.4,24.9,17.3,10.8,68,43,21,30.34,30.19,11,2,14,0.00
2013-4-3,57.7,41.1,26.6,23.9,16.1,10.4,63,38,21,30.47,30.31,12,3,16,0.00
2013-4-4,57.0,44.9,33.8,32.3,23.0,15.2,67,43,30,30.36,30.06,9,2,13,0.00
2013-4-5,41.9,40.4,38.5,32.5,31.6,30.9,75,71,67,30.07,30.06,1,0,2,0.00
2013-4-8,65.7,60.5,51.6,52.3,50.8,42.5,78,71,62,29.96,29.83,4,0,5,2.15
2013-4-9,85.1,69.3,55.8,60.1,55.0,50.4,83,63,39,30.06,29.87,19,4,27,0.06
2013-4-10,88.2,73.0,60.3,62.5,57.9,54.4,84,61,38,29.95,29.73,18,4,27,0.06
2013-4-11,76.1,66.9,58.1,61.6,57.4,53.6,96,73,57,29.75,29.50,14,2,21,0.47
2013-4-12,58.5,50.1,41.7,57.7,42.2,34.4,98,76,52,29.94,29.49,17,5,23,0.26
2013-4-13,64.9,48.9,36.7,39.6,35.6,31.4,85,63,33,30.05,29.93,15,3,21,0.00
2013-4-14,77.2,57.8,37.8,48.6,42.6,34.8,89,61,35,30.04,29.82,12,2,24,0.00
2013-4-15,81.0,64.7,56.5,57.2,52.5,47.7,85,66,42,29.99,29.87,9,2,16,0.00
2013-4-16,86.0,68.4,55.6,65.3,58.8,51.8,91,73,48,30.10,29.92,16,3,21,0.07
2013-4-17,82.8,66.7,59.0,66.7,61.2,57.3,98,84,55,30.14,29.92,8,2,14,0.77
2013-4-18,86.9,73.5,60.6,63.5,58.4,53.6,86,61,39,29.94,29.57,16,3,29,0.02
2013-4-19,73.2,52.0,39.2,62.1,42.8,31.1,95,72,52,30.04,29.42,16,5,23,0.41
2013-4-20,62.2,46.5,33.6,37.1,30.0,18.8,88,57,24,30.34,30.04,11,3,17,0.00
2013-4-21,73.2,51.2,34.9,37.6,30.7,25.9,74,49,20,30.48,30.27,10,3,13,0.00
2013-4-22,82.8,58.3,38.7,47.3,37.6,28.6,72,49,21,30.31,30.07,8,1,12,0.00
2013-4-23,75.2,60.1,44.2,53.9,47.9,40.6,88,66,46,30.14,29.90,14,2,16,0.00
2013-4-24,61.2,52.7,44.2,56.3,46.5,37.7,95,80,67,30.24,29.80,11,3,20,0.61
2013-4-25,64.8,49.4,34.2,45.9,36.4,31.3,94,64,38,30.34,30.24,11,2,20,0.00
2013-4-26,69.8,54.2,36.1,42.9,35.3,27.4,85,52,24,30.45,30.29,6,1,9,0.00
2013-4-27,64.2,56.0,47.8,53.7,47.6,41.3,94,74,58,30.32,30.06,7,1,9,0.09
2013-4-28,72.5,60.5,53.4,59.7,55.9,51.9,97,85,61,30.60,29.82,14,2,21,0.43
2013-4-29,70.7,58.8,52.3,57.6,53.7,49.6,94,84,62,30.01,29.90,7,1,9,0.01
2013-4-30,90.5,63.6,45.7,61.9,52.9,44.9,98,73,34,30.06,29.92,6,1,10,0.00
2013-5-13,70.0,57.6,39.4,50.9,34.2,26.3,81,44,22,29.99,29.74,9,2,16,2.34
2013-5-14,86.7,63.1,41.5,59.6,48.4,37.7,87,62,37,29.95,29.60,15,2,22,0.00
2013-5-15,90.7,76.8,66.7,63.1,57.7,48.6,73,53,31,29.74,29.59,17,4,21,0.00
2013-5-16,78.8,67.8,62.1,65.0,58.0,48.7,95,72,47,29.77,29.65,11,2,15,0.26
2013-5-17,84.2,71.1,59.2,67.5,62.9,58.2,97,77,48,29.82,29.72,8,1,12,0.00
2013-5-23,75.4,67.2,57.2,63.2,57.4,52.9,92,72,54,30.05,29.89,8,2,13,0.43
2013-5-24,71.8,57.5,47.7,53.1,43.1,38.9,87,61,33,30.34,30.05,8,2,13,0.00
2013-5-25,72.1,58.2,43.0,51.2,45.5,41.1,94,66,38,30.42,30.21,4,1,9,0.00
2013-5-26,83.8,65.6,53.2,56.2,52.2,48.1,93,65,33,30.33,30.16,5,1,8,0.01
2013-5-27,89.1,72.8,59.5,61.8,54.7,48.8,77,55,30,30.20,29.95,14,2,17,0.00
2013-5-28,89.1,76.9,68.2,64.4,60.2,56.8,76,58,42,30.08,29.91,15,3,27,0.00
2013-5-29,94.5,78.0,66.6,68.6,62.7,58.7,77,61,41,30.13,29.97,14,2,17,0.00
2013-5-30,96.6,79.6,66.9,69.4,64.5,60.7,84,62,38,30.17,29.96,8,2,14,0.00
2013-5-31,88.3,75.8,67.6,71.3,64.5,61.5,89,70,45,30.09,29.93,16,2,30,0.30
2013-6-1,88.5,76.6,69.6,70.6,66.6,62.3,91,72,51,29.98,29.81,17,3,27,0.28
2013-6-2,87.6,72.9,63.7,66.9,63.6,58.8,91,74,46,29.95,29.85,8,2,14,0.00
2013-6-3,79.7,67.4,59.4,60.4,56.7,52.6,91,70,45,30.06,29.92,6,2,11,0.00
2013-6-4,91.4,69.1,52.7,60.8,54.8,51.0,94,64,32,30.15,30.02,7,2,11,0.00
2013-6-5,90.7,71.4,56.8,67.4,58.9,49.2,91,67,41,30.07,29.86,6,1,11,0.02
2013-6-6,81.7,71.1,66.4,70.4,66.5,64.2,95,86,64,29.90,29.77,10,1,14,0.11
2013-6-7,84.4,68.0,61.9,65.6,61.2,57.5,96,81,44,29.88,29.78,5,1,8,0.00
2013-6-8,92.5,72.5,59.4,65.6,61.0,57.0,94,70,40,30.05,29.88,5,1,8,0.00
2013-6-9,89.1,71.1,61.3,69.3,64.1,59.3,94,81,43,30.81,29.96,5,1,9,0.20
2013-6-10,82.9,71.1,64.9,68.5,64.9,62.1,97,82,53,29.97,29.83,11,2,17,0.83
2013-6-11,91.4,75.1,63.3,67.1,64.9,61.6,94,73,43,30.02,29.91,5,1,8,0.00
2013-6-12,96.6,82.8,69.1,75.9,69.9,64.8,88,67,44,30.54,29.76,11,2,16,0.00
2013-6-13,82.4,76.3,64.8,72.5,66.5,56.5,92,72,49,29.93,29.67,14,4,22,0.08
2013-6-14,90.0,70.9,56.3,62.2,58.0,53.5,92,66,35,30.06,29.93,5,1,11,0.00
2013-6-15,91.6,74.7,58.1,66.5,60.5,56.2,95,65,34,30.15,29.96,9,1,11,0.00
2013-6-16,86.0,72.4,65.3,69.2,64.3,60.0,97,77,54,30.08,29.98,8,1,9,1.55
2013-6-17,65.7,65.1,64.8,65.1,64.5,63.9,98,98,97,30.01,29.99,1,0,2,0.00
2013-6-18,95.7,74.0,64.4,68.8,64.8,58.5,96,76,39,29.98,29.83,8,1,14,0.35
2013-6-19,95.7,74.8,60.8,65.3,61.6,56.1,94,67,33,30.11,29.98,6,2,9,0.01
2013-6-21,98.2,79.0,62.8,70.5,65.3,60.0,91,66,37,30.24,30.09,3,1,5,0.00
2013-6-22,97.5,80.5,65.8,70.4,66.3,63.1,93,65,36,30.22,30.03,4,1,5,0.00
2013-6-23,95.5,79.1,66.7,71.4,66.4,63.5,94,69,39,30.19,30.03,4,1,8,0.45
2013-6-24,88.9,74.2,66.0,71.9,67.9,64.7,96,82,54,30.19,30.06,8,1,11,0.07
2013-6-25,95.5,80.2,66.2,74.7,70.0,65.0,96,74,45,30.12,29.90,4,2,8,0.01
2013-6-26,89.2,76.1,67.8,72.9,69.3,65.2,96,81,56,29.99,29.82,7,2,10,2.80
2013-6-27,91.2,80.8,66.4,75.8,71.1,65.4,97,74,54,29.85,29.73,7,1,10,0.59
2013-6-28,93.2,79.1,66.4,72.0,66.1,59.3,89,67,39,29.76,29.59,9,2,14,0.00
2013-6-29,84.2,71.3,63.1,70.4,63.7,59.8,95,78,56,29.70,29.61,11,1,15,0.56
2013-6-30,91.8,73.5,63.3,67.9,63.9,60.8,97,75,42,29.82,29.69,5,1,8,0.08
2013-7-1,85.1,71.7,62.8,71.5,65.7,60.7,95,82,56,29.94,29.81,8,1,12,0.15
2013-7-2,93.2,73.9,62.2,70.6,65.7,60.6,98,78,43,30.04,29.93,5,1,7,0.01
2013-7-3,85.1,74.5,68.2,71.6,68.5,66.3,94,82,58,30.15,30.04,5,0,8,0.00
2013-7-4,75.7,71.0,66.2,71.1,68.0,65.1,96,90,84,30.18,30.09,5,1,8,2.03
2013-7-5,79.3,71.3,66.2,74.0,68.9,65.2,98,92,76,30.17,30.11,7,0,8,2.04
2013-7-6,79.0,72.1,68.0,73.0,68.7,65.7,97,89,73,30.16,30.08,10,1,16,0.26
2013-7-7,84.2,70.1,67.3,71.1,67.6,66.2,97,92,62,30.14,30.08,5,0,8,0.13
2013-7-20,93.9,82.1,72.5,74.0,71.6,69.7,95,73,48,30.00,29.86,5,2,11,0.00
2013-7-21,95.7,79.0,71.1,74.1,70.2,68.0,94,76,44,30.00,29.88,4,1,6,0.64
2013-7-22,81.7,74.5,70.9,73.9,71.1,68.7,96,89,73,29.95,29.80,4,1,7,1.84
2013-7-23,89.8,77.5,69.6,75.1,70.6,67.7,97,81,54,29.89,29.77,6,2,11,0.20
2013-7-24,82.9,72.2,64.8,69.7,63.8,60.0,93,76,56,29.99,29.83,4,1,6,0.00
2013-7-25,87.3,71.2,58.6,62.4,58.7,55.9,93,67,41,30.11,29.99,4,1,7,0.00
2013-7-26,88.7,74.3,56.3,66.7,61.8,55.2,97,67,43,30.13,29.98,4,0,7,0.00
2013-7-27,78.6,70.4,65.3,66.4,64.5,62.1,91,82,63,30.00,29.87,7,1,11,0.06
2013-7-28,83.5,67.6,55.9,62.1,54.6,48.5,92,66,37,30.10,29.92,6,1,11,0.00
2013-7-29,74.3,58.3,54.7,63.7,55.2,53.0,95,90,63,30.18,30.10,2,0,3,0.00
2013-8-1,72.5,69.0,65.8,61.4,61.0,60.3,85,76,67,29.97,29.92,1,0,2,0.01
2013-8-2,86.5,72.9,59.7,65.6,61.9,58.0,94,71,44,30.03,29.95,8,1,11,0.00
2013-8-3,86.5,75.1,68.7,72.7,67.5,63.5,94,78,56,30.01,29.93,8,1,12,0.02
2013-8-4,86.5,70.8,61.2,68.2,60.2,54.1,98,72,38,30.11,30.01,8,1,11,0.02
2013-8-5,92.3,71.8,55.0,62.9,57.8,53.5,96,66,32,30.13,29.93,6,1,8,0.00
2013-8-6,89.1,75.9,65.8,70.0,64.7,59.3,89,69,49,29.98,29.90,6,1,8,0.00
2013-8-7,90.3,78.5,69.6,75.2,71.0,67.1,95,79,58,29.96,29.86,10,1,16,0.04
2013-8-8,88.3,77.6,72.1,74.8,71.9,69.7,95,83,62,29.97,29.87,8,1,13,0.01
2013-8-9,86.7,76.4,72.9,75.2,72.0,69.6,95,87,64,30.01,29.91,9,2,12,0.44
2013-8-10,86.2,77.7,70.9,75.3,71.3,68.2,96,82,59,30.09,30.01,4,1,6,0.31
2013-8-11,90.9,81.4,71.8,74.9,71.4,68.9,96,73,53,30.10,29.99,6,1,11,0.00
2013-8-12,86.7,75.0,65.8,76.0,70.2,65.0,97,86,59,30.06,29.89,8,1,11,0.11
2013-8-13,81.9,73.5,65.7,72.2,66.1,55.6,94,79,58,30.02,29.87,8,2,11,0.01
2013-8-14,82.4,65.7,52.3,56.7,52.3,48.7,92,64,36,30.14,30.02,7,1,8,0.00
2013-8-15,88.3,66.9,49.6,60.1,54.2,48.3,95,67,35,30.17,30.02,8,1,13,0.00
2013-8-16,90.9,69.9,54.9,63.2,57.7,53.1,95,68,37,30.13,30.03,6,1,8,0.00
2013-8-17,62.4,60.3,59.2,57.2,56.6,56.0,91,88,83,30.14,30.11,1,0,2,0.00
2013-8-18,90.9,77.1,67.1,68.5,65.8,60.5,90,69,45,29.93,29.69,4,1,7,0.96
2013-8-19,90.1,74.3,63.5,71.9,66.3,62.1,96,78,47,29.90,29.80,5,1,9,0.00
2013-8-20,94.8,77.7,63.7,70.8,66.7,61.9,96,72,44,29.93,29.79,6,1,10,0.00
2013-8-21,90.3,75.7,66.9,73.4,67.7,63.7,95,78,52,29.94,27.11,10,1,17,0.01
2013-8-22,92.3,77.4,66.7,73.5,68.8,64.5,96,77,48,29.90,29.74,8,1,12,0.01
2013-8-23,91.6,77.1,68.7,70.6,67.0,62.8,96,74,43,29.86,29.74,6,1,9,0.00
2013-8-24,98.4,77.0,60.6,68.3,62.0,57.8,95,64,32,30.00,29.86,8,1,11,0.00
2013-8-25,91.6,72.1,58.8,66.8,61.4,56.4,93,72,39,30.09,29.93,6,1,8,0.00
2013-8-26,92.5,76.6,63.5,70.4,66.3,61.2,95,73,45,30.00,29.77,6,1,11,0.00
2013-8-27,95.5,80.4,70.5,73.4,70.8,67.9,92,74,47,29.83,29.68,7,1,11,0.00
2013-8-28,88.5,78.3,73.2,73.4,72.3,70.2,94,83,57,29.96,29.66,7,1,12,0.07
2013-8-29,93.4,78.8,70.9,73.7,70.7,67.1,95,78,46,30.03,29.94,5,1,9,0.01
2013-8-30,95.5,78.2,64.9,73.2,67.8,63.6,97,74,43,30.00,29.83,5,1,8,0.00
2013-8-31,92.5,76.2,69.4,74.1,69.4,66.5,94,81,51,29.94,29.74,11,1,14,0.00
2013-9-1,90.1,75.8,67.3,72.0,68.4,65.3,96,80,50,29.87,29.75,8,1,13,0.00
2013-9-2,89.4,76.3,70.0,73.4,70.2,65.7,94,82,54,29.90,29.79,11,2,16,0.00
2013-9-3,82.9,70.3,60.3,68.7,60.2,54.6,95,72,43,30.07,29.88,6,1,10,0.00
2013-9-4,88.5,69.0,53.6,62.2,58.1,52.2,96,72,40,30.82,30.06,4,1,8,0.00
2013-9-5,91.6,72.0,57.0,66.3,60.9,55.8,96,72,40,30.19,30.08,4,1,6,0.00
2013-9-6,90.0,72.2,59.4,63.1,56.5,48.5,89,62,28,30.23,30.06,5,1,8,0.00
2013-9-7,91.6,72.5,55.2,67.3,60.9,53.1,93,70,43,30.11,29.94,7,1,8,0.00
2013-9-8,94.5,78.1,66.0,70.5,66.9,64.3,95,71,43,30.00,29.90,4,0,6,0.00
2013-9-9,96.6,79.5,66.7,71.3,68.1,65.3,95,71,42,30.06,29.95,11,1,13,0.00
2013-9-10,96.6,81.3,70.3,72.9,70.1,67.8,92,71,43,30.17,30.05,8,1,14,0.00
2013-9-11,93.6,79.8,70.3,73.5,70.3,67.4,94,75,47,30.18,30.03,8,1,14,0.00
2013-9-12,86.7,75.3,67.6,72.6,67.3,62.9,94,77,51,30.07,29.85,10,1,21,0.00
2013-9-13,70.0,67.8,64.0,64.9,62.1,59.0,85,82,76,29.93,29.89,6,2,9,0.00
2013-10-29,69.4,59.9,56.3,67.7,55.2,53.4,94,84,79,29.92,29.45,6,0,11,4.55
2013-11-4,50.0,49.8,49.6,43.1,42.9,42.4,78,77,76,29.93,29.91,2,0,2,0.64
2013-11-5,66.9,54.6,47.8,44.1,40.0,36.4,76,59,38,30.02,29.84,4,1,7,0.00
2013-11-6,71.4,58.9,46.6,59.4,49.1,36.4,95,71,54,29.84,29.57,14,2,23,0.00
2013-11-7,57.0,45.1,35.6,55.6,35.5,24.6,96,71,33,29.86,29.58,8,2,14,0.00
2013-11-8,61.2,40.9,30.2,33.6,28.5,23.4,86,64,27,29.99,29.83,5,1,9,0.00
2013-11-9,64.0,47.1,31.5,34.6,28.9,21.7,81,54,22,29.86,29.65,15,3,27,0.00
2013-11-10,58.5,46.4,32.2,37.8,29.8,20.0,80,55,25,29.92,29.73,9,2,16,0.00
2013-11-11,64.2,46.1,29.1,42.7,28.5,22.3,86,57,21,29.91,29.67,9,2,14,0.00
2013-11-12,48.0,32.3,23.5,43.2,22.3,14.2,93,68,41,30.21,29.75,10,3,14,0.00
2013-11-13,45.9,29.9,20.7,25.1,18.8,15.8,84,65,33,30.24,30.02,8,1,13,0.00
2013-11-14,61.9,38.6,25.3,26.7,19.7,15.7,74,51,21,30.02,29.78,11,2,17,0.00
2013-11-15,57.0,45.2,33.6,42.9,31.3,19.7,88,59,40,29.81,29.71,8,1,12,0.00
2013-11-16,62.6,57.3,42.4,55.0,52.3,41.4,97,84,75,29.75,29.55,8,2,17,0.00
2013-11-17,66.9,60.9,53.2,62.9,56.0,44.4,93,84,66,29.55,29.21,22,3,37,0.00
2013-11-18,57.6,48.3,36.7,44.6,36.3,25.3,85,65,37,29.79,29.44,11,3,21,0.00
2013-11-19,46.4,36.1,28.8,32.0,26.7,23.7,85,69,54,29.94,29.79,9,2,14,0.00
2013-11-20,67.1,40.6,26.2,37.6,28.6,20.3,83,64,30,29.92,29.78,4,1,8,0.00
2013-11-21,38.7,38.7,38.5,30.1,30.1,29.9,71,71,71,29.84,29.84,1,1,2,0.00
2013-11-26,32.0,31.9,31.8,30.3,30.2,30.0,94,93,93,29.93,29.90,0,0,0,0.00
2013-11-27,31.8,27.5,18.1,30.0,20.8,11.0,93,76,57,30.32,29.89,8,1,14,0.00
2013-11-28,42.3,25.1,14.5,26.4,15.8,8.4,80,68,49,30.46,30.26,10,1,13,0.00
2013-11-29,44.4,25.2,17.1,28.5,17.8,11.2,82,74,49,30.61,30.43,4,0,6,0.00
2013-11-30,59.5,37.2,23.4,32.6,25.5,16.9,79,64,35,30.48,30.20,8,1,11,0.00
2013-12-1,51.4,43.4,34.3,36.0,31.7,24.8,70,64,52,30.21,29.97,8,1,8,0.00
2013-12-2,58.3,46.8,37.6,41.3,37.6,33.1,86,71,51,29.96,29.75,2,0,4,0.00
2013-12-3,58.5,48.8,38.7,49.2,44.0,37.4,95,84,68,29.88,29.78,3,1,4,0.00
2013-12-4,67.6,60.0,45.3,57.9,54.4,43.4,96,82,70,29.88,29.74,10,2,15,0.00
2013-12-5,64.2,53.2,35.4,60.9,49.5,32.7,95,87,78,30.11,29.81,11,4,16,0.00
2013-12-6,35.4,32.7,28.6,33.1,30.0,25.9,92,90,88,30.33,30.04,9,2,12,0.00
2013-12-7,34.5,27.4,23.4,25.9,21.5,17.0,89,78,66,30.53,30.32,0,0,0,0.00
2013-12-8,35.2,29.6,23.9,33.2,25.2,17.5,92,84,75,30.49,30.01,0,0,0,0.00
2013-12-9,35.6,32.3,27.3,33.6,27.9,19.7,93,84,71,30.24,30.01,8,2,15,0.00
2013-12-10,35.2,27.0,23.0,21.5,18.4,15.1,80,70,52,30.36,30.13,12,1,17,0.00
2013-12-11,41.4,28.2,17.8,26.8,18.2,11.6,83,67,45,30.48,30.26,13,3,18,0.00
2013-12-12,33.6,21.6,12.6,12.0,6.6,2.0,67,53,32,30.55,30.34,11,2,14,0.00
2013-12-13,45.5,31.5,19.2,26.8,15.3,6.9,69,52,28,30.37,30.11,8,1,13,0.00
2013-12-14,43.9,38.8,35.2,42.3,34.7,25.0,95,85,64,30.14,29.70,10,3,17,0.00
2013-12-15,35.2,30.9,29.5,32.6,25.4,22.6,90,80,74,30.13,29.86,11,3,17,0.00
2013-12-16,43.2,35.0,29.7,34.1,28.9,23.7,85,79,69,30.13,30.01,9,2,13,0.00
2013-12-17,41.9,38.7,35.2,35.6,33.2,29.8,85,80,77,30.08,30.00,8,3,13,0.00